FW1286 Weather Reports


Display with metric or nautical units.
time (UTC)temp
F
wind
direction
speed
MPH
gust
MPH
rain 1hr
in
rain 24hr
in
rain mn
in
humidity
%
barometer
mb
20260502130547 49 277 0.0 3.0 0.00 0.50 0.01 96 1022.6
20260502123519 47 266 0.0 3.0 0.00 0.53 0.01 95 1022.3
20260502122532 47 327 0.0 3.0 0.00 0.53 0.01 96 1022.0
20260502121504 46 327 0.0 0.0 0.00 0.53 0.01 95 1021.8
20260502120447 46 327 0.0 1.0 0.00 0.53 0.01 95 1021.7
20260502115511 46 327 0.0 0.0 0.00 0.54 0.01 95 1021.6
20260502114436 46 327 0.0 0.0 0.00 0.54 0.01 95 1021.1
20260502113432 46 327 0.0 0.0 0.00 0.54 0.01 95 1021.0
20260502111329 46 327 0.0 0.0 0.00 0.59 0.01 95 1020.8
20260502110335 47 327 0.0 0.0 0.00 0.62 0.00 94 1020.6
20260502105339 47 327 0.0 0.0 0.00 0.65 0.00 94 1020.4
20260502104320 47 327 0.0 0.0 0.00 0.68 0.00 94 1020.1
20260502103248 47 327 0.0 0.0 0.00 0.69 0.00 94 1019.8
20260502102224 48 327 0.0 0.0 0.00 0.70 0.00 94 1019.5
20260502100113 48 327 1.0 4.0 0.00 0.72 0.00 94 1019.6
20260502090912 48 308 1.0 3.0 0.00 0.73 0.00 94 1019.7
20260502071428 49 326 1.0 3.0 0.00 0.85 0.00 94 1019.4
20260502070357 50 326 1.0 3.0 0.00 0.86 0.00 94 1019.2
20260502065351 50 313 1.0 4.0 0.00 0.89 0.00 94 1019.2
20260502064317 50 309 2.0 6.0 0.00 0.90 0.00 94 1019.3
20260502063331 50 302 3.0 6.0 0.00 0.92 0.00 94 1019.3
20260502062316 50 321 2.0 4.0 0.00 0.92 0.00 94 1019.2
20260502061313 50 296 1.0 4.0 0.00 0.92 0.00 94 1019.2
20260502060313 50 295 1.0 3.0 0.00 0.92 0.00 94 1019.1
20260502055338 51 321 2.0 4.0 0.00 0.92 0.00 94 1019.1
20260502053232 51 308 3.0 5.0 0.00 0.92 0.00 95 1019.2
20260502052237 51 315 3.0 5.0 0.00 0.92 0.00 95 1019.2
20260502051205 51 316 2.0 5.0 0.00 0.93 0.00 94 1019.1
20260502045025 51 324 1.0 4.0 0.00 0.95 0.94 94 1018.8
20260502041835 53 309 0.0 4.0 0.00 0.98 0.94 94 1018.9
20260502034611 53 331 4.0 7.0 0.00 0.98 0.94 94 1018.6
20260502033558 53 319 4.0 7.0 0.00 0.98 0.94 94 1018.7
20260502032607 54 319 2.0 5.0 0.00 0.98 0.94 95 1018.6
20260502030434 53 301 1.0 3.0 0.00 0.98 0.94 95 1018.6
20260502025407 53 301 1.0 4.0 0.00 0.99 0.94 94 1018.6
20260502024333 53 301 2.0 4.0 0.00 1.01 0.94 94 1018.3
20260502023309 53 325 1.0 4.0 0.00 1.01 0.94 94 1018.1
20260502022237 53 325 1.0 3.0 0.00 1.01 0.94 94 1018.0
20260502021220 54 325 2.0 5.0 0.00 1.01 0.94 94 1017.7
20260502020214 54 332 3.0 8.0 0.00 1.01 0.94 94 1017.3
20260502015205 54 323 4.0 8.0 0.00 1.01 0.94 94 1017.1
20260502014135 54 323 4.0 8.0 0.00 1.01 0.94 94 1016.7
20260502013156 54 351 3.0 7.0 0.00 1.01 0.94 94 1016.7
20260502012132 54 323 4.0 7.0 0.00 1.01 0.94 95 1016.7
20260502011140 54 318 4.0 7.0 0.00 1.01 0.94 95 1016.5
20260502010130 54 345 4.0 7.0 0.00 1.01 0.94 95 1016.2
20260502005102 54 355 4.0 8.0 0.00 1.01 0.94 95 1016.0
20260502004110 53 329 5.0 8.0 0.00 1.01 0.94 95 1015.9
20260502003036 54 350 5.0 11.0 0.00 1.01 0.94 95 1015.7
20260502002054 53 336 6.0 11.0 0.00 1.01 0.94 95 1015.5
20260502001115 53 332 7.0 11.0 0.00 1.01 0.94 95 1015.3
20260501234954 54 355 7.0 14.0 0.00 1.01 0.94 95 1015.4
20260501233938 53 317 8.0 14.0 0.00 1.01 0.94 95 1015.2
20260501232911 54 338 7.0 12.0 0.00 1.01 0.94 95 1015.1
20260501231847 53 325 8.0 12.0 0.00 1.02 0.94 95 1015.0
20260501230903 53 350 9.0 17.0 0.00 1.03 0.94 95 1014.7
20260501225926 53 355 10.0 17.0 0.00 1.05 0.94 95 1014.6
20260501224900 53 332 11.0 21.0 0.00 1.08 0.94 95 1014.8
20260501223845 53 344 11.0 24.0 0.00 1.08 0.94 95 1014.7
20260501222859 53 331 12.0 24.0 0.05 1.09 0.94 95 1014.6
20260501221923 54 313 9.0 20.0 0.09 1.11 0.94 95 1014.5
20260501220907 54 318 9.0 18.0 0.06 1.13 0.92 95 1015.0
20260501215924 55 332 8.0 18.0 0.12 1.20 0.91 95 1014.8
20260501214855 55 324 9.0 18.0 0.00 1.19 0.89 95 1014.8
20260501213835 55 306 9.0 20.0 0.00 1.19 0.89 94 1014.7
20260501212839 55 287 10.0 20.0 0.00 1.19 0.89 95 1014.3
20260501211816 55 321 11.0 19.0 0.00 1.19 0.89 95 1013.9
20260501210747 55 298 11.0 20.0 0.00 1.19 0.89 95 1013.7
20260501205733 55 315 10.0 24.0 0.00 1.19 0.89 96 1013.2
20260501204749 55 328 12.0 24.0 0.00 1.19 0.89 96 1013.0
20260501203748 55 340 12.0 21.0 0.00 1.19 0.89 96 1012.7
20260501201538 55 328 11.0 21.0 0.00 1.22 0.89 96 1012.7
20260501200545 56 286 11.0 21.0 0.00 1.22 0.89 97 1012.5
20260501195603 56 324 11.0 18.0 0.00 1.20 0.87 97 1012.8
20260501194549 56 323 9.0 18.0 0.00 1.20 0.87 97 1012.8
20260501193606 56 319 10.0 15.0 0.00 1.20 0.87 97 1013.0
20260501192610 56 329 9.0 18.0 0.00 1.20 0.87 97 1013.6
20260501191535 56 318 10.0 18.0 0.00 1.20 0.87 97 1013.4
20260501190522 56 317 12.0 21.0 0.00 1.20 0.87 97 1012.8
20260501185523 56 317 12.0 23.0 0.05 1.20 0.87 97 1012.4
20260501184531 57 335 11.0 23.0 0.06 1.20 0.87 98 1012.8
20260501183548 56 304 10.0 19.0 0.10 1.24 0.86 97 1012.7
20260501182605 55 312 7.0 14.0 0.16 1.25 0.83 97 1014.1
20260501181616 55 322 4.0 8.0 0.27 1.24 0.81 97 1015.4
20260501180550 55 251 4.0 17.0 0.26 1.17 0.73 97 1016.5
20260501173334 55 331 9.0 17.0 0.00 1.12 0.67 97 1013.8
20260501171153 55 355 10.0 17.0 0.00 1.12 0.67 97 1013.5
20260501170128 56 315 7.0 18.0 0.00 1.12 0.67 97 1013.4
20260501165110 56 349 10.0 18.0 0.00 1.12 0.67 97 1013.6
20260501164051 56 336 10.0 19.0 0.00 1.12 0.67 97 1013.5
20260501163034 56 313 10.0 19.0 0.00 1.12 0.67 97 1013.5
20260501160836 57 355 8.0 19.0 0.00 1.12 0.67 98 1013.3
20260501154729 56 346 9.0 18.0 0.00 1.11 0.66 98 1013.0
20260501153728 56 9 6.0 11.0 0.00 1.11 0.66 97 1013.6
20260501152722 56 355 7.0 13.0 0.04 1.10 0.65 97 1014.1
20260501151720 56 0 7.0 14.0 0.09 1.10 0.65 97 1013.8
20260501145624 56 13 8.0 14.0 0.00 1.07 0.62 97 1013.8
20260501144632 56 25 7.0 20.0 0.00 1.06 0.61 97 1013.9
20260501143630 56 5 9.0 20.0 0.06 1.06 0.61 98 1013.8
20260501141534 56 331 9.0 19.0 0.10 1.02 0.55 97 1013.3